Regional Weather Roundup
Issued by NWS

Home | Current Version | Previous Version | Text Only | Print | Product List | Glossary Off
Versions: 1 2 3 4 5 6 7 8 9 10 11 12 13 14 15 16 17 18 19 20 21 22 23 24 25 26 27 28 29 30 31 32 33 34 35 36 37 38 39 40 41 42 43 44 45 46 47 48 49 50

000
ASUS43 KLOT 042100
RWRIL

ILLINOIS REGIONAL WEATHER ROUNDUP
NATIONAL WEATHER SERVICE CHICAGO/ROMEOVILLE IL
400 PM CDT FRI SEP 04 2015

NOTE: "FAIR" INDICATES FEW OR NO CLOUDS BELOW 12,000 FEET WITH NO
SIGNIFICANT WEATHER AND/OR OBSTRUCTIONS TO VISIBILITY.

* THESE STATIONS ARE NOT UNDER NWS QUALITY CONTROL. THEY ALSO MAY NOT
  REPORT WEATHER SUCH AS PRECIPITATION OR FOG.

ILZ001-002-007-009-015-016-024-042200-
NORTHWEST ILLINOIS

CITY           SKY/WX    TMP DP  RH WIND       PRES   REMARKS
MOLINE         FAIR      92  69  47 SW9       29.96F HX  97
STERLING*      FAIR     N/A N/A N/A CALM      29.95F
$$

ILZ003-004-008-010-011-017-018-042200-
NORTH CENTRAL ILLINOIS

CITY           SKY/WX    TMP DP  RH WIND       PRES   REMARKS
ROCKFORD       FAIR      90  70  51 NW5       30.00F HX  95
FREEPORT*      FAIR      86  71  61 CALM      30.01S HX  91
$$

ILZ005-006-012>014-019>023-042200-
NORTHEAST ILLINOIS

CITY           SKY/WX    TMP DP  RH WIND       PRES   REMARKS
CHICAGO-OHARE  PTSUNNY   80  66  62 NE9       30.00S HX  82
CHICAGO-MIDWAY FAIR      80  68  66 NE10      30.00F HX  83
AURORA         FAIR      88  72  58 CALM      30.00F HX  94
LANSING*       FAIR      80  69  68 NE8       30.01R HX  83
WAUKEGAN       PTSUNNY   69  66  90 NE10      30.02S
DUPAGE AIRPORT PTSUNNY   89  70  53 W6        29.99F HX  94
WHEELING         N/A     78  67  68 E7        30.02F HX  80
NORTHERLY ISL    N/A     73  66  78 NE9         N/A
$$

LMZ740>746-042200-
SOUTHERN LAKE MICHIGAN

STATION/POSITION SKY/WX   TEMP    WIND        PRES    VSBY  WAVE
                          AIR SEA DIR/SP/G                  HT/PER
                          (F)     (DEG/KT/KT) (MB)    (MI)  (FT/S)
SOUTHERN BUOY              69 71  320/  6/  8 1016.4S         1
WILMETTE HARBOR            69 71  240/  6/  8   N/A           1/ 4
HARRISON CRIB              69      40/  9/ 11   N/A
BURNHAM HARBOR             73      30/  6/  9   N/A
CALUMET HARBOR             73      30/  7/ 10   N/A
BURNS HARBOR               72      20/  8/  9 1016.9F
MICHIGAN CITY              70      20/  9/  9   N/A
MICHIGAN CITY 6N           71 74   40/  8/ 10   N/A           1/ 3
ST. JOSEPH                 71 77   40/  8/  8   N/A           1/ 4
$$

ILZ025>027-034>036-040-047-049-050-058-095>099-042200-
WEST-CENTRAL ILLINOIS

CITY           SKY/WX    TMP DP  RH WIND       PRES   REMARKS
QUINCY         FAIR      92  67  43 SW7       29.97F HX  95
$$

ILZ028>032-037-038-041>044-048-051>054-059>061-042200-
CENTRAL ILLINOIS

CITY           SKY/WX    TMP DP  RH WIND       PRES   REMARKS
DECATUR        FAIR      94  65  38 VRB6      29.99F HX  96
PEORIA         FAIR      96  66  37 W7        29.97F HX  99
SPRINGFIELD    FAIR      95  67  39 S9        29.98F HX  99
TAYLORVILLE    NOT AVBL
$$

ILZ033-039-045-046-055>057-062-063-042200-
EAST-CENTRAL ILLINOIS

CITY           SKY/WX    TMP DP  RH WIND       PRES   REMARKS
CHAMPAIGN      FAIR      93  67  42 SW5       29.99F HX  96
MATTOON        FAIR      92  64  39 SW9       29.99F HX  93
$$

ILZ079-100>102-042200-
SOUTHWEST ILLINOIS

CITY           SKY/WX    TMP DP  RH WIND       PRES   REMARKS
ALTON          MOSUNNY   90  70  51 VRB3      29.99F HX  95
CAHOKIA*       FAIR      94  66  39 VRB6      29.98F HX  97
SPARTA*        PTSUNNY   90  70  50 SW6       30.01F HX  95
$$

ILZ064>066-069>071-074>076-080>082-084>086-088>090-092>094-042200-
SOUTH-CENTRAL ILLINOIS

CITY           SKY/WX    TMP DP  RH WIND       PRES   REMARKS
CARBONDALE     PTSUNNY   90  69  50 CALM      30.00F HX  94
MARION         MOSUNNY   93  66  40 SW6       30.01F HX  96
MT. VERNON     FAIR      95  66  38 S8        30.01F HX  98
CENTRALIA*     FAIR      91  70  51 SW3       29.99F HX  96
SALEM*         FAIR      93  67  41 S6        30.00F HX  96
$$

ILZ067-068-072-073-078-083-087-091-042200-
SOUTHEAST ILLINOIS

CITY           SKY/WX    TMP DP  RH WIND       PRES   REMARKS
LAWRENCEVILLE  FAIR      94  66  39 VRB6      29.99F HX  97
FLORA*         FAIR      93  65  38 CALM      30.00F HX  95
ROBINSON*      FAIR      93  66  41 SW7       30.00F HX  95
$$

ABBREVIATIONS USED IN REMARKS
   TC - TEMPERATURE IN CELSIUS
  WCI - WIND CHILL INDEX
   HX - HEAT INDEX
  VSB - VISIBILITY
$$




USA.gov is the U.S. government's official web portal to all federal, state and local government web resources and services.